Weather reports worldwide

Advertisment
Andrewsfield, United Kingdom (3684): temperature & dewpoint: 08.12.2017 20:00:00 - 14.12.2017 20:00:00 (GMT)Andrewsfield, United Kingdom (3684): temperature -20cm & temperature -100cm: 08.12.2017 20:00:00 - 14.12.2017 20:00:00 (GMT)Andrewsfield, United Kingdom (3684): wind speed & gusts: 08.12.2017 20:00:00 - 14.12.2017 20:00:00 (GMT)Andrewsfield, United Kingdom (3684): wind direction: 08.12.2017 20:00:00 - 14.12.2017 20:00:00 (GMT)Andrewsfield, United Kingdom (3684): reduced air pressure: 08.12.2017 20:00:00 - 14.12.2017 20:00:00 (GMT)Andrewsfield, United Kingdom (3684): visibility: 08.12.2017 20:00:00 - 14.12.2017 20:00:00 (GMT)Andrewsfield, United Kingdom (3684): precipitation: 08.12.2017 20:00:00 - 14.12.2017 20:00:00 (GMT)
Date & Time tt [°C] td [°C] tt -20cm [°C] tt -100cm [°C] ff [km/h] ff [kn] fx [km/h] fx [kn] dd ppp [hPa] vv [km] rr [mm]
14.12.2017 20:00:00 1,7 0,7 - - 21 11 - - WSW 988,0 24 0,0
14.12.2017 19:00:00 1,6 0,4 - - 15 8 - - SW 987,5 29 0,0
14.12.2017 18:00:00 1,9 0,6 - - 16 9 - - WSW 987,8 30 0,0
14.12.2017 17:00:00 2,2 0,3 - - 16 9 - - WSW 987,9 30 0,0
14.12.2017 16:00:00 3,5 0,7 - - 16 9 - - SW 988,3 30 0,0
14.12.2017 15:00:00 4,8 1,3 - - 21 11 - - WSW 988,3 30 0,0
14.12.2017 14:00:00 5,2 1,7 - - 21 11 - - WSW 989,1 30 0,0
14.12.2017 13:00:00 4,9 1,5 - - 24 13 - - WSW 989,7 30 0,0
14.12.2017 12:00:00 4,8 1,5 - - 31 17 - - WSW 990,4 35 0,0
14.12.2017 11:00:00 4,2 1,3 - - 29 16 - - WSW 991,0 30 0,0
14.12.2017 10:00:00 2,8 0,9 - - 26 14 - - WSW 991,6 27 0,0
14.12.2017 09:00:00 2,5 0,6 3,9 7,2 28 15 - - WSW 991,4 26 0,0
14.12.2017 08:00:00 2,2 0,5 - - 24 13 - - WSW 991,4 30 0,0
14.12.2017 07:00:00 2,7 0,7 - - 26 14 - - WSW 991,3 30 0,0
14.12.2017 06:00:00 3,2 0,6 - - 26 14 - - WSW 991,4 30 0,0
14.12.2017 05:00:00 3,0 0,7 - - 24 13 - - WSW 991,4 35 0,0
14.12.2017 04:00:00 2,6 0,3 - - 26 14 - - WSW 991,4 35 0,0
14.12.2017 03:00:00 2,1 -0,1 - - 24 13 - - WSW 991,7 40 0,0
14.12.2017 02:00:00 2,3 -0,2 - - 24 13 52 28 W 991,3 35 0,0
14.12.2017 01:00:00 2,8 0,0 - - 34 18 50 27 W 990,4 40 0,0
14.12.2017 00:00:00 2,1 1,4 - - 29 16 65 35 W 989,4 17 1,2
13.12.2017 23:00:00 2,9 1,6 - - 35 19 48 26 W 987,7 22 0,0
13.12.2017 22:00:00 2,6 1,4 - - 29 16 54 29 SW 987,7 35 0,4
13.12.2017 21:00:00 3,1 1,0 - - 15 8 - - SW 988,8 30 0,0
13.12.2017 20:00:00 2,6 0,8 - - 22 12 - - WSW 989,6 35 0,0
13.12.2017 19:00:00 3,0 0,7 - - 18 10 - - W 989,7 35 0,0
13.12.2017 18:00:00 4,1 2,1 - - 29 16 - - W 990,0 45 0,0
13.12.2017 17:00:00 5,5 2,9 - - 22 12 76 41 WNW 989,8 55 0,2
13.12.2017 16:00:00 6,9 6,2 - - 26 14 - - W 989,1 11 2,6
13.12.2017 15:00:00 6,2 5,9 - - 18 10 - - SW 990,2 5 0,4
13.12.2017 14:00:00 5,5 5,3 - - 21 11 - - SW 991,8 21 0,8
13.12.2017 13:00:00 4,8 4,6 - - 13 7 - - SSW 994,1 7 0,4
13.12.2017 12:00:00 4,5 4,3 - - 15 8 - - SSW 995,8 12 0,2
13.12.2017 11:00:00 3,6 3,4 - - 16 9 - - SSW 997,7 8 0,0
13.12.2017 10:00:00 3,6 3,1 - - 22 12 - - SW 998,6 16 0,0
13.12.2017 09:00:00 2,9 2,6 4,0 7,7 16 9 - - SW 998,8 15 0,0
13.12.2017 08:00:00 2,7 2,6 - - 18 10 - - WSW 999,5 11 0,0
13.12.2017 07:00:00 3,4 3,3 - - 11 6 - - W 999,5 11 0,0
13.12.2017 06:00:00 4,6 4,6 - - 18 10 - - WNW 999,7 13 0,0
13.12.2017 05:00:00 4,1 4,1 - - 13 7 - - WSW 999,5 0,1 0,2
13.12.2017 04:00:00 4,2 4,2 - - 11 6 - - SW 1000,1 0,4 0,2
13.12.2017 03:00:00 4,4 4,4 - - 11 6 - - S 1000,9 2,7 0,6
13.12.2017 02:00:00 3,6 3,6 - - 11 6 - - S 1002,1 1,1 0,6
13.12.2017 01:00:00 3,4 3,3 - - 11 6 - - S 1003,5 6 1,4
13.12.2017 00:00:00 2,9 2,5 - - 13 7 - - S 1004,9 8 0,8
12.12.2017 23:00:00 2,3 1,6 - - 9 5 - - S 1006,2 9 0,0
12.12.2017 22:00:00 1,9 0,6 - - 9 5 - - S 1006,9 19 0,0
12.12.2017 21:00:00 1,1 -0,3 - - 9 5 - - S 1008,1 18 0,0
12.12.2017 20:00:00 0,8 -0,7 - - 13 7 - - S 1008,7 16 0,0
12.12.2017 19:00:00 0,2 -1,1 - - 9 5 - - S 1009,2 13 0,0
12.12.2017 18:00:00 0,1 -1,0 - - 13 7 - - S 1009,5 11 0,0
12.12.2017 17:00:00 0,3 -1,2 - - 11 6 - - SSW 1009,7 11 0,0
12.12.2017 16:00:00 -0,9 -2,5 - - 13 7 - - SW 1009,8 8 0,0
12.12.2017 15:00:00 -0,2 -2,2 - - 11 6 - - SW 1009,6 9 0,0
12.12.2017 14:00:00 -0,3 -2,2 - - 11 6 - - SW 1009,6 8 0,0
12.12.2017 13:00:00 -0,3 -2,7 - - 13 7 - - WSW 1009,2 8 0,0
12.12.2017 12:00:00 -0,8 -2,9 - - 13 7 - - W 1009,1 8 0,0
12.12.2017 11:00:00 -1,7 -3,5 - - 13 7 - - WSW 1009,1 8 0,0
12.12.2017 10:00:00 -3,2 -4,9 - - 13 7 - - W 1008,6 8 0,0
12.12.2017 09:00:00 -3,3 -4,2 4,2 7,7 13 7 - - W 1008,1 9 0,0
12.12.2017 08:00:00 -4,9 -6,0 - - 11 6 - - W 1006,8 7 0,0
12.12.2017 07:00:00 -3,6 -4,2 - - 8 4 - - W 1005,6 9 0,0
12.12.2017 06:00:00 -2,4 -3,5 - - 8 4 - - WNW 1004,9 11 0,0
12.12.2017 05:00:00 -1,9 -3,0 - - 16 9 - - WNW 1003,7 12 0,0
12.12.2017 04:00:00 -2,0 -3,1 - - 15 8 - - WNW 1002,8 12 0,0
12.12.2017 03:00:00 -2,4 -3,5 - - 11 6 - - NW 1001,3 11 0,0
12.12.2017 02:00:00 -1,9 -3,2 - - 16 9 - - WNW 1000,2 14 0,0
12.12.2017 01:00:00 -1,8 -3,2 - - 15 8 - - WNW 998,8 15 0,0
12.12.2017 00:00:00 -1,2 -2,9 - - 16 9 - - NW 997,7 19 0,0
11.12.2017 23:00:00 -0,5 -2,2 - - 21 11 - - NW 996,2 22 0,0
11.12.2017 22:00:00 -0,2 -2,2 - - 16 9 - - NNW 995,1 26 0,0
11.12.2017 21:00:00 -0,1 -2,5 - - 21 11 - - NW 993,8 29 0,0
11.12.2017 20:00:00 0,4 -1,8 - - 21 11 - - NW 992,1 30 0,0
11.12.2017 19:00:00 0,8 -0,7 - - 21 11 - - NNW 990,6 26 0,0
11.12.2017 18:00:00 1,0 0,0 - - 21 11 - - NNW 989,1 22 0,0
11.12.2017 17:00:00 1,2 -0,1 - - 21 11 - - NNW 987,4 27 1,0
11.12.2017 16:00:00 2,6 0,2 - - 21 11 - - N 985,8 35 1,6
11.12.2017 15:00:00 1,8 1,6 - - 15 8 - - NNW 984,6 22 1,4
11.12.2017 14:00:00 0,8 0,6 - - 16 9 - - NNE 983,8 2,2 1,6
11.12.2017 13:00:00 0,3 0,3 - - 15 8 - - N 983,1 1,0 0,6
11.12.2017 12:00:00 0,3 0,3 - - 15 8 - - NNE 982,3 1,5 0,2
11.12.2017 11:00:00 0,7 0,4 - - 22 12 - - NE 982,0 1,3 1,0
11.12.2017 10:00:00 1,8 1,2 - - 26 14 - - NNE 981,2 14 1,0
11.12.2017 09:00:00 2,1 1,5 4,5 8,0 26 14 - - NE 981,1 16 2,8
11.12.2017 08:00:00 1,9 1,4 - - 26 14 - - NE 980,7 4,7 2,8
11.12.2017 07:00:00 1,9 1,4 - - 26 14 - - NE 980,1 12 1,4
11.12.2017 06:00:00 1,6 1,0 - - 24 13 - - NE 980,0 17 0,8
11.12.2017 05:00:00 0,9 0,7 - - 22 12 - - NE 979,6 14 0,0
11.12.2017 04:00:00 0,1 0,1 - - 16 9 - - NE 980,8 5 0,0
11.12.2017 03:00:00 -0,1 -0,1 - - 13 7 - - E 982,5 0,3 0,0
11.12.2017 02:00:00 0,0 0,0 - - 13 7 - - NE 982,0 0,3 0,0
11.12.2017 01:00:00 0,0 0,0 - - 8 4 - - NE 981,9 0,3 0,0
11.12.2017 00:00:00 0,1 0,1 - - 11 6 - - NE 981,5 0,2 0,0
10.12.2017 23:00:00 0,0 0,0 - - 9 5 - - NNE 981,4 0,2 0,0
10.12.2017 22:00:00 0,2 0,2 - - 5 3 - - N 980,9 0,2 0,2
10.12.2017 21:00:00 0,4 0,4 - - 5 3 - - NW 981,0 0,3 0,4
10.12.2017 20:00:00 0,5 0,5 - - 8 4 - - NNW 979,9 0,4 0,2
10.12.2017 19:00:00 0,5 0,5 - - 9 5 - - NW 979,2 0,8 0,4
10.12.2017 18:00:00 0,6 0,6 - - 13 7 - - WNW 978,4 4,1 0,4
10.12.2017 17:00:00 0,6 0,5 - - 11 6 - - NW 977,5 11 0,4
10.12.2017 16:00:00 0,5 0,4 - - 13 7 - - NW 976,6 8 0,6
10.12.2017 15:00:00 0,6 0,4 - - 13 7 - - NW 975,3 10 1,0
10.12.2017 14:00:00 0,6 0,5 - - 13 7 - - N 973,6 35 1,0
10.12.2017 13:00:00 0,2 0,2 - - 18 10 - - NNE 972,1 30 0,6
10.12.2017 12:00:00 0,2 0,2 - - 15 8 - - NE 972,5 3,1 0,2
10.12.2017 11:00:00 0,1 0,1 - - 18 10 - - NE 973,0 1,2 0,2
10.12.2017 10:00:00 0,1 0,1 - - 18 10 - - ENE 974,3 0,5 0,2
10.12.2017 09:00:00 0,3 0,2 4,7 8,2 22 12 - - E 976,8 0,4 0,0
10.12.2017 08:00:00 0,5 0,3 - - 22 12 - - ESE 979,6 1,0 1,6
10.12.2017 07:00:00 2,1 1,8 - - 24 13 - - SE 983,0 7 2,8
10.12.2017 06:00:00 0,9 0,7 - - 18 10 - - ESE 986,7 7 0,0
10.12.2017 05:00:00 0,3 -0,4 - - 13 7 - - ESE 990,7 2,3 0,0
10.12.2017 04:00:00 0,3 -2,0 - - 11 6 - - SE 993,9 25 0,0
10.12.2017 03:00:00 -0,2 -2,3 - - 9 5 - - SE 996,6 23 0,0
10.12.2017 02:00:00 -0,2 -2,5 - - 9 5 - - SSE 999,1 23 0,0
10.12.2017 01:00:00 -1,5 -2,5 - - 9 5 - - SSE 1001,4 11 0,0
10.12.2017 00:00:00 -1,4 -2,8 - - 5 3 - - S 1003,4 15 0,0
09.12.2017 23:00:00 -2,1 -3,0 - - 5 3 - - SW 1005,3 13 0,0
09.12.2017 22:00:00 -1,7 -2,6 - - 8 4 - - SW 1006,5 14 0,0
09.12.2017 21:00:00 -1,5 -2,5 - - 8 4 - - SW 1007,7 15 0,0
09.12.2017 20:00:00 -0,7 -2,0 - - 11 6 - - SW 1009,1 18 0,0
09.12.2017 19:00:00 -0,5 -1,9 - - 11 6 - - SW 1010,0 17 0,0
09.12.2017 18:00:00 -0,2 -2,1 - - 11 6 - - SW 1010,7 23 0,0
09.12.2017 17:00:00 0,0 -1,7 - - 13 7 - - WSW 1011,4 24 0,0
09.12.2017 16:00:00 0,8 -1,7 - - 15 8 - - WSW 1012,0 29 0,0
09.12.2017 15:00:00 1,5 -1,6 - - 15 8 - - W 1012,5 30 0,0
09.12.2017 14:00:00 2,4 -1,6 - - 22 12 - - W 1013,3 40 0,0
09.12.2017 13:00:00 3,1 -1,3 - - 18 10 - - W 1014,2 35 0,0
09.12.2017 12:00:00 1,7 -1,5 - - 21 11 - - W 1015,4 35 0,0
09.12.2017 11:00:00 1,5 -1,7 - - 18 10 - - W 1015,9 35 0,0
09.12.2017 10:00:00 0,4 -2,2 - - 21 11 - - W 1016,6 30 0,0
09.12.2017 09:00:00 -0,6 -2,5 5,7 8,4 21 11 - - W 1016,8 30 0,0
09.12.2017 08:00:00 -1,0 -2,8 - - 16 9 - - W 1016,8 30 0,0
09.12.2017 07:00:00 -0,9 -2,7 - - 16 9 - - W 1016,9 35 0,0
09.12.2017 06:00:00 -0,9 -2,3 - - 18 10 - - W 1016,7 30 0,0
09.12.2017 05:00:00 -0,8 -2,4 - - 18 10 - - W 1016,9 30 0,0
09.12.2017 04:00:00 -0,5 -2,4 - - 16 9 - - WNW 1016,7 30 0,0
09.12.2017 03:00:00 -0,3 -2,4 - - 21 11 - - WNW 1017,2 35 0,0
09.12.2017 02:00:00 -0,4 -2,2 - - 21 11 - - W 1017,1 30 0,0
09.12.2017 01:00:00 -0,3 -2,0 - - 22 12 - - W 1016,8 30 0,0
09.12.2017 00:00:00 -0,3 -2,1 - - 18 10 - - WNW 1017,0 30 0,0
08.12.2017 23:00:00 -0,3 -2,2 - - 22 12 - - W 1016,9 29 0,0
08.12.2017 22:00:00 -0,2 -2,0 - - 22 12 - - W 1017,1 28 0,0
08.12.2017 21:00:00 -0,2 -1,9 - - 21 11 - - W 1016,9 30 0,0
08.12.2017 20:00:00 0,2 -2,1 - - 24 13 - - WNW 1016,8 35 0,0

tt = temperature
td = dewpoint
tt -20cm = temperature -20cm
tt -100cm = temperature -100cm
ff = wind speed
fx = gusts
dd = wind direction
ppp = reduced air pressure
vv = visibility
rr = precipitation

Next stations